Weather History for KT65 - November, 2013

Change the Weather History Date:

Saturday, November 2, 2013

  Actual Average (KMFE) Record (KMFE)
Temperature  
Mean Temperature 68 °F 73 °F  
Max Temperature 80 °F 84 °F 95 °F (1997)
Min Temperature 57 °F 63 °F 37 °F (1903)
Cooling Degree Days 4 9  
Year to date cooling degree days 4200  
Growing Degree Days 18 (Base 50)    
Moisture  
Dew Point 46 °F    
Average Humidity 46    
Maximum Humidity 83    
Minimum Humidity 19    
Precipitation  
Precipitation 0.00 in 0.05 in 0.77 in (1982)
Year to date precipitation 20.21  
Sea Level Pressure  
Sea Level Pressure 30.15 in    
Wind  
Wind Speed 8 mph (North)    
Max Wind Speed 15 mph    
Max Gust Speed 25 mph    
Visibility 9 miles    
Events      
T = Trace of Precipitation, MM = Missing Value Source: NWS Daily Summary

Daily Weather History Graph

Daily Weather History Graph

Search for Another Location

Airport or City:

Trip Planner

Search our weather history database for the weather conditions in past years. The results will help you decide how hot, cold, wet, or windy it might be!

Date:

Astronomy

Nov. 02, 2013 Rise Set
Actual Time 7:41 AM CDT 6:48 PM CDT
Civil Twilight 7:17 AM CDT 7:12 PM CDT
Nautical Twilight 6:50 AM CDT 7:40 PM CDT
Astronomical Twilight 6:23 AM CDT 8:07 PM CDT
Moon 6:44 AM CDT (11/2) 6:19 PM CDT (11/2)
Length of Visible Light 11h 55m
Length of Day
11h 07m
Waning Crescent, 1% of the Moon is Illuminated
Nov 2
Waning Crescent
Nov 3
New
Nov 9
First Quarter
Nov 17
Full
Nov 25
Last Quarter

Hourly Weather History & Observations

Time (CDT) Temp. Dew Point Humidity Pressure Visibility Wind Dir Wind Speed Gust Speed Precip Events Conditions
12:15 AM 75.6 °F 67.8 °F 77% 29.97 in 10.0 mi North 5.8 mph - N/A   Scattered Clouds
12:35 AM 75.0 °F 67.3 °F 77% 29.97 in 10.0 mi Calm Calm - N/A   Mostly Cloudy
12:55 AM 73.6 °F 67.3 °F 81% 29.97 in 10.0 mi Calm Calm - N/A   Scattered Clouds
1:15 AM 73.4 °F 67.5 °F 82% 29.98 in 10.0 mi North 3.5 mph - N/A   Mostly Cloudy
1:35 AM 73.0 °F 67.5 °F 83% 29.98 in 10.0 mi NNW 3.5 mph - N/A   Overcast
1:55 AM 73.6 °F 66.2 °F 78% 29.98 in 10.0 mi NNW 10.4 mph - N/A   Mostly Cloudy
2:15 AM 75.2 °F 66.0 °F 73% 29.99 in 10.0 mi North 12.7 mph 17.3 mph N/A   Scattered Clouds
2:35 AM 74.1 °F 65.5 °F 74% 30.00 in 10.0 mi North 12.7 mph 17.3 mph N/A   Clear
2:55 AM 72.9 °F 64.6 °F 75% 30.01 in 10.0 mi North 13.8 mph 18.4 mph N/A   Clear
3:15 AM 72.5 °F 60.1 °F 65% 30.03 in 10.0 mi North 12.7 mph 20.7 mph N/A   Clear
3:35 AM 70.9 °F 57.2 °F 62% 30.05 in 10.0 mi North 11.5 mph 21.9 mph N/A   Clear
3:55 AM 69.8 °F 52.9 °F 55% 30.06 in 7.0 mi North 13.8 mph 23.0 mph N/A   Mostly Cloudy
4:15 AM 69.1 °F 49.6 °F 50% 30.06 in 10.0 mi North 13.8 mph 21.9 mph N/A   Mostly Cloudy
4:35 AM 68.2 °F 48.0 °F 48% 30.07 in 10.0 mi North 12.7 mph 20.7 mph N/A   Overcast
4:55 AM 67.1 °F 46.9 °F 48% 30.07 in 10.0 mi North 11.5 mph 20.7 mph N/A   Scattered Clouds
5:15 AM 66.2 °F 46.8 °F 50% 30.08 in 10.0 mi North 9.2 mph 17.3 mph N/A   Scattered Clouds
5:35 AM 64.9 °F 46.8 °F 52% 30.09 in 10.0 mi North 10.4 mph 17.3 mph N/A   Scattered Clouds
5:55 AM 65.3 °F 46.0 °F 50% 30.10 in 10.0 mi North 11.5 mph 17.3 mph N/A   Mostly Cloudy
6:15 AM 64.8 °F 46.4 °F 51% 30.10 in 10.0 mi North 11.5 mph 17.3 mph N/A   Scattered Clouds
6:35 AM 63.5 °F 46.8 °F 54% 30.12 in 10.0 mi North 10.4 mph - N/A   Clear
6:55 AM 62.6 °F 46.4 °F 55% 30.13 in 10.0 mi North 8.1 mph - N/A   Clear
7:15 AM 62.2 °F 46.4 °F 56% 30.14 in 10.0 mi North 8.1 mph - N/A   Scattered Clouds
7:35 AM 61.9 °F 46.4 °F 57% 30.15 in 10.0 mi North 6.9 mph - N/A   Scattered Clouds
7:55 AM 60.8 °F 46.6 °F 59% 30.16 in 10.0 mi NNW 6.9 mph - N/A   Scattered Clouds
8:15 AM 61.7 °F 46.8 °F 58% 30.18 in 7.0 mi NNW 9.2 mph - N/A   Scattered Clouds
8:35 AM 62.4 °F 47.3 °F 58% 30.19 in 10.0 mi NNW 9.2 mph - N/A   Scattered Clouds
8:55 AM 64.0 °F 47.1 °F 54% 30.20 in 7.0 mi NNW 10.4 mph 16.1 mph N/A   Clear
9:15 AM 65.3 °F 46.4 °F 50% 30.21 in 7.0 mi NNW 13.8 mph 18.4 mph N/A   Clear
9:35 AM 66.2 °F 45.9 °F 48% 30.22 in 7.0 mi North 13.8 mph 25.3 mph N/A   Clear
9:55 AM 67.5 °F 45.7 °F 46% 30.23 in 7.0 mi North 11.5 mph 21.9 mph N/A   Clear
10:15 AM 68.5 °F 45.7 °F 44% 30.24 in 10.0 mi North 11.5 mph 19.6 mph N/A   Clear
10:35 AM 70.2 °F 44.8 °F 40% 30.24 in 7.0 mi North 15.0 mph 20.7 mph N/A   Clear
10:55 AM 70.7 °F 44.1 °F 38% 30.24 in 10.0 mi North 15.0 mph 20.7 mph N/A   Clear
12:15 PM 75.2 °F 41.0 °F 29% 30.24 in 10.0 mi NNE 13.8 mph 19.6 mph N/A   Clear
12:35 PM 75.7 °F 41.4 °F 29% 30.24 in 7.0 mi NNE 13.8 mph 19.6 mph N/A   Clear
12:55 PM 76.8 °F 40.8 °F 27% 30.23 in 7.0 mi North 13.8 mph 21.9 mph N/A   Clear
1:15 PM 76.8 °F 40.3 °F 27% 30.22 in 10.0 mi NNE 11.5 mph 20.7 mph N/A   Clear
1:35 PM 77.4 °F 38.8 °F 25% 30.21 in 7.0 mi North 13.8 mph 19.6 mph N/A   Clear
1:55 PM 77.9 °F 38.7 °F 24% 30.20 in 10.0 mi North 13.8 mph 20.7 mph N/A   Clear
2:15 PM 78.8 °F 36.9 °F 22% 30.19 in 7.0 mi North 9.2 mph 16.1 mph N/A   Clear
2:35 PM 79.7 °F 36.3 °F 21% 30.18 in 7.0 mi North 10.4 mph 20.7 mph N/A   Clear
2:55 PM 79.3 °F 34.5 °F 20% 30.17 in 10.0 mi North 13.8 mph 19.6 mph N/A   Clear
3:15 PM 80.1 °F 37.0 °F 21% 30.17 in 10.0 mi NNE 11.5 mph 18.4 mph N/A   Clear
3:35 PM 80.4 °F 36.7 °F 21% 30.16 in 10.0 mi North 10.4 mph 16.1 mph N/A   Clear
3:55 PM 80.6 °F 37.0 °F 21% 30.16 in 7.0 mi North 11.5 mph 16.1 mph N/A   Clear
4:15 PM 80.2 °F 36.5 °F 21% 30.15 in 7.0 mi NNE 11.5 mph 17.3 mph N/A   Clear
4:35 PM 79.9 °F 35.1 °F 20% 30.15 in 7.0 mi NNE 13.8 mph 19.6 mph N/A   Clear
4:55 PM 79.7 °F 35.1 °F 20% 30.14 in 7.0 mi NNE 15.0 mph 20.7 mph N/A   Clear
5:15 PM 79.2 °F 34.3 °F 20% 30.14 in 7.0 mi NNE 12.7 mph 18.4 mph N/A   Clear
5:35 PM 78.4 °F 33.3 °F 19% 30.14 in 7.0 mi North 10.4 mph - N/A   Clear
5:55 PM 77.9 °F 33.1 °F 20% 30.15 in 10.0 mi NE 11.5 mph - N/A   Clear
6:15 PM 76.6 °F 32.2 °F 20% 30.15 in 10.0 mi NE 10.4 mph - N/A   Clear
6:35 PM 75.2 °F 32.7 °F 21% 30.16 in 10.0 mi NE 6.9 mph - N/A   Clear
6:55 PM 72.3 °F 36.1 °F 27% 30.17 in 10.0 mi ENE 5.8 mph - N/A   Clear
7:15 PM 70.2 °F 38.1 °F 31% 30.17 in 10.0 mi ENE 4.6 mph - N/A   Clear
7:35 PM 68.5 °F 38.7 °F 34% 30.18 in 10.0 mi ENE 5.8 mph - N/A   Clear
7:55 PM 67.5 °F 38.8 °F 35% 30.19 in 10.0 mi ENE 3.5 mph - N/A   Clear
8:15 PM 67.3 °F 38.7 °F 35% 30.20 in 10.0 mi ENE 3.5 mph - N/A   Clear
8:35 PM 65.8 °F 40.1 °F 39% 30.21 in 10.0 mi Calm Calm - N/A   Clear
8:55 PM 64.4 °F 41.7 °F 44% 30.21 in 7.0 mi Calm Calm - N/A   Clear
9:15 PM 60.8 °F 41.9 °F 50% 30.21 in 7.0 mi Calm Calm - N/A   Clear
9:35 PM 61.0 °F 43.2 °F 52% 30.22 in 10.0 mi Calm Calm - N/A   Clear
9:55 PM 59.7 °F 43.3 °F 55% 30.22 in 10.0 mi Calm Calm - N/A   Clear
10:15 PM 60.4 °F 43.2 °F 53% 30.22 in 10.0 mi Calm Calm - N/A   Clear
10:35 PM 59.7 °F 43.7 °F 55% 30.22 in 7.0 mi Calm Calm - N/A   Clear
10:55 PM 58.5 °F 46.6 °F 65% 30.22 in 7.0 mi Calm Calm - N/A   Clear
11:15 PM 57.9 °F 45.1 °F 62% 30.22 in 7.0 mi Calm Calm - N/A   Clear
11:35 PM 57.7 °F 45.5 °F 64% 30.21 in 7.0 mi Calm Calm - N/A   Clear
11:55 PM 57.0 °F 45.7 °F 66% 30.21 in 7.0 mi Calm Calm - N/A   Clear